KE4OGG Weather Reports


Display with metric or nautical units.
time (UTC)temp
F
wind
direction
speed
MPH
gust
MPH
rain 1hr
in
rain 24hr
in
rain mn
in
humidity
%
barometer
mb
20260902005024 85 0 0.0 0.0 0.00 0.00 0.00 47 1018.8
20260902004546 85 0 0.0 0.0 0.00 0.00 0.00 47 1018.6
20260902004024 86 0 0.0 0.0 0.00 0.00 0.00 46 1018.7
20260902003523 86 0 0.0 0.0 0.00 0.00 0.00 45 1018.7
20260902003046 86 0 0.0 0.0 0.00 0.00 0.00 44 1018.6
20260902002525 87 0 0.0 0.0 0.00 0.00 0.00 44 1018.6
20260902002023 87 0 0.0 0.0 0.00 0.00 0.00 43 1018.7
20260902001542 87 0 0.0 0.0 0.00 0.00 0.00 43 1018.7
20260902001021 87 0 0.0 0.0 0.00 0.00 0.00 43 1018.7
20260902000525 87 0 0.0 0.0 0.00 0.00 0.00 43 1018.7
20260902000046 87 0 0.0 0.0 0.00 0.00 0.00 43 1018.7
20260901235523 88 0 0.0 0.0 0.00 0.00 0.00 42 1018.6
20260901235024 88 0 0.0 0.0 0.00 0.00 0.00 42 1018.6
20260901234552 88 0 0.0 1.0 0.00 0.00 0.00 42 1018.6
20260901234024 89 0 0.0 1.0 0.00 0.00 0.00 41 1018.6
20260901233526 89 0 0.0 1.0 0.00 0.00 0.00 41 1018.7
20260901233047 89 0 0.0 1.0 0.00 0.00 0.00 41 1018.7
20260901232528 90 0 0.0 1.0 0.00 0.00 0.00 39 1018.6
20260901232024 90 0 0.0 1.0 0.00 0.00 0.00 39 1018.7
20260901231549 91 0 0.0 1.0 0.00 0.00 0.00 37 1018.7
20260901231024 91 0 0.0 1.0 0.00 0.00 0.00 36 1018.7
20260901230523 91 0 0.0 1.0 0.00 0.00 0.00 36 1018.8
20260901230046 92 0 0.0 1.0 0.00 0.00 0.00 37 1018.8
20260901225525 92 300 0.0 1.0 0.00 0.00 0.00 35 1018.7
20260901225024 92 0 0.0 0.0 0.00 0.00 0.00 36 1018.6
20260901224555 93 300 0.0 1.0 0.00 0.00 0.00 36 1018.6
20260901224024 94 300 0.0 1.0 0.00 0.00 0.00 35 1018.5
20260901223524 93 0 0.0 1.0 0.00 0.00 0.00 36 1018.6
20260901223043 93 0 0.0 2.0 0.00 0.00 0.00 34 1018.6
20260901222524 93 0 0.0 2.0 0.00 0.00 0.00 33 1018.7
20260901222024 93 0 0.0 2.0 0.00 0.00 0.00 35 1018.6
20260901221544 94 295 0.0 2.0 0.00 0.00 0.00 32 1018.6
20260901221024 94 0 0.0 2.0 0.00 0.00 0.00 34 1018.6
20260901220524 94 293 0.0 2.0 0.00 0.00 0.00 34 1018.6
20260901220048 94 290 0.0 1.0 0.00 0.00 0.00 33 1018.5
20260901215524 94 296 0.0 2.0 0.00 0.00 0.00 32 1018.4
20260901215023 94 0 0.0 2.0 0.00 0.00 0.00 33 1018.6
20260901214551 94 0 0.0 3.0 0.00 0.00 0.00 33 1018.6
20260901214025 93 0 0.0 5.0 0.00 0.00 0.00 36 1018.6
20260901213527 93 103 2.0 5.0 0.00 0.00 0.00 34 1018.5
20260901213045 93 94 1.0 4.0 0.00 0.00 0.00 33 1018.5
20260901212524 93 0 1.0 5.0 0.00 0.00 0.00 34 1018.5
20260901212023 93 117 0.0 6.0 0.00 0.00 0.00 33 1018.6
20260901211541 93 96 0.0 6.0 0.00 0.00 0.00 34 1018.6
20260901211028 94 96 3.0 6.0 0.00 0.00 0.00 33 1018.6
20260901210526 94 300 0.0 3.0 0.00 0.00 0.00 33 1018.6
20260901210045 93 104 0.0 4.0 0.00 0.00 0.00 32 1018.6
20260901205526 93 120 2.0 8.0 0.00 0.00 0.00 33 1018.7
20260901205026 94 98 4.0 8.0 0.00 0.00 0.00 33 1018.7
20260901204544 94 328 0.0 6.0 0.00 0.00 0.00 33 1018.8
20260901204030 94 101 3.0 6.0 0.00 0.00 0.00 32 1018.7
20260901203528 95 101 1.0 4.0 0.00 0.00 0.00 34 1018.8
20260901203047 95 303 2.0 4.0 0.00 0.00 0.00 33 1018.7
20260901202526 95 302 0.0 3.0 0.00 0.00 0.00 31 1018.9
20260901202031 95 299 1.0 3.0 0.00 0.00 0.00 33 1019.0
20260901201542 95 103 0.0 7.0 0.00 0.00 0.00 30 1019.1
20260901201026 95 86 1.0 7.0 0.00 0.00 0.00 35 1019.1
20260901200526 95 79 3.0 6.0 0.00 0.00 0.00 33 1019.1
20260901200103 95 115 1.0 7.0 0.00 0.00 0.00 30 1019.1
20260901195526 96 122 2.0 7.0 0.00 0.00 0.00 31 1019.2
20260901195034 96 115 3.0 6.0 0.00 0.00 0.00 30 1019.2
20260901194557 95 82 1.0 3.0 0.00 0.00 0.00 33 1019.2
20260901194026 95 124 2.0 4.0 0.00 0.00 0.00 28 1019.2
20260901193523 96 110 1.0 4.0 0.00 0.00 0.00 31 1019.3
20260901193046 96 15 0.0 2.0 0.00 0.00 0.00 33 1019.3
20260901192526 96 313 1.0 2.0 0.00 0.00 0.00 30 1019.4
20260901192026 96 102 0.0 3.0 0.00 0.00 0.00 28 1019.5
20260901191549 97 0 1.0 3.0 0.00 0.00 0.00 27 1019.4
20260901191027 96 144 1.0 5.0 0.00 0.00 0.00 27 1019.6
20260901190528 96 230 2.0 5.0 0.00 0.00 0.00 28 1019.6
20260901190052 96 290 1.0 4.0 0.00 0.00 0.00 28 1019.6
20260901185529 96 302 1.0 4.0 0.00 0.00 0.00 29 1019.6
20260901185025 96 345 2.0 4.0 0.00 0.00 0.00 28 1019.7
20260901184549 96 300 0.0 4.0 0.00 0.00 0.00 30 1019.7
20260901184026 95 297 0.0 4.0 0.00 0.00 0.00 33 1019.7
20260901183526 95 300 2.0 4.0 0.00 0.00 0.00 32 1019.8
20260901183052 95 0 0.0 3.0 0.00 0.00 0.00 33 1019.8
20260901182527 94 0 1.0 3.0 0.00 0.00 0.00 34 1019.8
20260901182026 94 310 1.0 6.0 0.00 0.00 0.00 33 1019.8
20260901181551 94 326 2.0 6.0 0.00 0.00 0.00 34 1019.8
20260901181027 95 123 0.0 2.0 0.00 0.00 0.00 35 1019.8
20260901180527 93 250 0.0 2.0 0.00 0.00 0.00 37 1019.9
20260901180044 93 294 0.0 4.0 0.00 0.00 0.00 35 1019.8
20260901175530 93 321 1.0 4.0 0.00 0.00 0.00 36 1020.0
20260901175026 93 325 0.0 4.0 0.00 0.00 0.00 35 1020.1
20260901174543 93 276 2.0 4.0 0.00 0.00 0.00 35 1020.2
20260901174026 93 0 1.0 3.0 0.00 0.00 0.00 35 1020.2
20260901173526 93 0 0.0 2.0 0.00 0.00 0.00 38 1020.3
20260901173057 93 330 1.0 3.0 0.00 0.00 0.00 34 1020.3
20260901172525 95 264 0.0 4.0 0.00 0.00 0.00 34 1020.4
20260901172027 94 0 0.0 6.0 0.00 0.00 0.00 38 1020.5
20260901171557 93 82 2.0 7.0 0.00 0.00 0.00 36 1020.5
20260901171024 93 109 3.0 7.0 0.00 0.00 0.00 36 1020.5
20260901170524 94 291 1.0 3.0 0.00 0.00 0.00 36 1020.5
20260901170052 94 0 0.0 5.0 0.00 0.00 0.00 35 1020.6
20260901165523 93 148 1.0 5.0 0.00 0.00 0.00 36 1020.8
20260901165027 93 110 2.0 5.0 0.00 0.00 0.00 38 1020.8
20260901164554 94 63 0.0 4.0 0.00 0.00 0.00 37 1021.0
20260901164024 93 0 2.0 4.0 0.00 0.00 0.00 37 1021.0
20260901163527 94 293 0.0 4.0 0.00 0.00 0.00 37 1021.1
20260901163047 93 114 0.0 6.0 0.00 0.00 0.00 40 1021.1
20260901162526 92 300 0.0 6.0 0.00 0.00 0.00 40 1021.1
20260901162023 92 97 0.0 6.0 0.00 0.00 0.00 40 1021.1
20260901161546 92 58 0.0 3.0 0.00 0.00 0.00 41 1021.3
20260901161023 91 323 1.0 3.0 0.00 0.00 0.00 42 1021.3
20260901160525 90 356 1.0 4.0 0.00 0.00 0.00 38 1021.4
20260901160049 90 2 2.0 6.0 0.00 0.00 0.00 39 1021.5
20260901155526 91 297 2.0 6.0 0.00 0.00 0.00 40 1021.5
20260901155021 92 338 0.0 4.0 0.00 0.00 0.00 41 1021.5
20260901154538 91 0 1.0 5.0 0.00 0.00 0.00 43 1021.5
20260901154031 92 275 1.0 5.0 0.00 0.00 0.00 41 1021.5
20260901153526 91 141 1.0 3.0 0.00 0.00 0.00 41 1021.6
20260901153046 90 330 0.0 3.0 0.00 0.00 0.00 41 1021.6
20260901152528 89 294 0.0 4.0 0.00 0.00 0.00 43 1021.7
20260901152028 89 330 2.0 4.0 0.00 0.00 0.00 42 1021.7
20260901151544 90 295 0.0 3.0 0.00 0.00 0.00 40 1021.7
20260901151022 90 288 1.0 3.0 0.00 0.00 0.00 39 1021.7
20260901150525 90 261 0.0 2.0 0.00 0.00 0.00 42 1021.8
20260901150046 89 0 0.0 3.0 0.00 0.00 0.00 43 1021.8
20260901145526 88 293 1.0 3.0 0.00 0.00 0.00 45 1021.8
20260901145027 89 0 1.0 2.0 0.00 0.00 0.00 42 1021.8
20260901144546 89 302 0.0 2.0 0.00 0.00 0.00 43 1021.8
20260901144025 89 307 0.0 2.0 0.00 0.00 0.00 45 1021.7
20260901143526 88 0 0.0 1.0 0.00 0.00 0.00 47 1021.8
20260901143055 89 315 0.0 1.0 0.00 0.00 0.00 48 1021.7
20260901142527 87 316 0.0 2.0 0.00 0.00 0.00 48 1021.8
20260901142024 86 316 0.0 2.0 0.00 0.00 0.00 50 1021.7
20260901141547 86 295 0.0 2.0 0.00 0.00 0.00 50 1021.7
20260901141026 84 294 0.0 2.0 0.00 0.00 0.00 52 1021.7
20260901140525 84 285 0.0 2.0 0.00 0.00 0.00 51 1021.7
20260901140048 83 295 0.0 2.0 0.00 0.00 0.00 51 1021.8
20260901135530 83 305 1.0 2.0 0.00 0.00 0.00 52 1021.9
20260901135025 82 0 0.0 2.0 0.00 0.00 0.00 52 1021.8
20260901134547 82 0 0.0 2.0 0.00 0.00 0.00 53 1021.8
20260901134026 82 283 1.0 2.0 0.00 0.00 0.00 53 1021.8
20260901133525 82 0 0.0 1.0 0.00 0.00 0.00 55 1021.8
20260901133045 81 311 0.0 1.0 0.00 0.00 0.00 56 1021.8
20260901132529 80 0 0.0 1.0 0.00 0.00 0.00 56 1021.8
20260901132025 79 295 0.0 1.0 0.00 0.00 0.00 58 1021.8
20260901131549 79 0 0.0 1.0 0.00 0.00 0.00 59 1021.8
20260901131026 78 0 0.0 1.0 0.00 0.00 0.00 59 1021.8
20260901130531 78 0 0.0 1.0 0.00 0.00 0.00 59 1021.8
20260901130049 77 300 0.0 0.0 0.00 0.00 0.00 59 1021.8
20260901125525 77 0 0.0 0.0 0.00 0.00 0.00 61 1021.8
20260901125026 76 0 0.0 0.0 0.00 0.00 0.00 62 1021.8
20260901124546 76 0 0.0 1.0 0.00 0.00 0.00 61 1021.7
20260901124025 75 0 0.0 1.0 0.00 0.00 0.00 62 1021.7
20260901123527 75 348 0.0 1.0 0.00 0.00 0.00 62 1021.7
20260901123048 75 0 0.0 1.0 0.00 0.00 0.00 63 1021.8
20260901122526 74 0 0.0 1.0 0.00 0.00 0.00 64 1021.6
20260901122023 74 307 0.0 0.0 0.00 0.00 0.00 64 1021.6
20260901121602 74 0 0.0 1.0 0.00 0.00 0.00 64 1021.7
20260901121027 73 0 0.0 1.0 0.00 0.00 0.00 65 1021.5
20260901120526 73 0 0.0 1.0 0.00 0.00 0.00 66 1021.3
20260901120046 72 0 0.0 1.0 0.00 0.00 0.00 68 1021.3
20260901115528 72 0 0.0 0.0 0.00 0.00 0.00 72 1021.3
20260901115025 71 0 0.0 1.0 0.00 0.00 0.00 73 1021.1
20260901114545 71 0 0.0 1.0 0.00 0.00 0.00 73 1021.0
20260901114030 71 0 0.0 0.0 0.00 0.00 0.00 73 1021.0
20260901113527 71 0 0.0 0.0 0.00 0.00 0.00 73 1020.9
20260901113041 71 0 0.0 0.0 0.00 0.00 0.00 73 1020.9
20260901112524 71 0 0.0 0.0 0.00 0.00 0.00 73 1020.8
20260901112026 71 0 0.0 0.0 0.00 0.00 0.00 73 1020.7
20260901111618 71 0 0.0 0.0 0.00 0.00 0.00 74 1020.7
20260901111028 71 0 0.0 0.0 0.00 0.00 0.00 73 1020.8
20260901110527 71 0 0.0 0.0 0.00 0.00 0.00 73 1020.7
20260901110049 71 0 0.0 0.0 0.00 0.00 0.00 73 1020.7
20260901105526 71 0 0.0 0.0 0.00 0.00 0.00 73 1020.7
20260901105028 71 0 0.0 0.0 0.00 0.00 0.00 72 1020.7
20260901104555 72 0 0.0 0.0 0.00 0.00 0.00 72 1020.7
20260901104026 72 0 0.0 0.0 0.00 0.00 0.00 72 1020.5
20260901103527 72 0 0.0 0.0 0.00 0.00 0.00 73 1020.5
20260901103048 71 0 0.0 0.0 0.00 0.00 0.00 73 1020.6
20260901102526 71 0 0.0 0.0 0.00 0.00 0.00 74 1020.5
20260901102025 71 0 0.0 0.0 0.00 0.00 0.00 73 1020.6
20260901101548 71 0 0.0 0.0 0.00 0.00 0.00 72 1020.6
20260901101028 71 0 0.0 0.0 0.00 0.00 0.00 71 1020.5
20260901100524 71 0 0.0 0.0 0.00 0.00 0.00 71 1020.4
20260901095524 72 0 0.0 0.0 0.00 0.00 0.00 70 1020.5
20260901095024 72 0 0.0 0.0 0.00 0.00 0.00 70 1020.5
20260901094549 72 0 0.0 0.0 0.00 0.00 0.00 69 1020.5
20260901094024 72 0 0.0 0.0 0.00 0.00 0.00 69 1020.5
20260901093523 72 0 0.0 0.0 0.00 0.00 0.00 70 1020.5
20260901093052 72 0 0.0 1.0 0.00 0.00 0.00 70 1020.5
20260901092531 72 0 0.0 1.0 0.00 0.00 0.00 69 1020.5
20260901092025 72 281 0.0 1.0 0.00 0.00 0.00 70 1020.4
20260901091553 73 0 0.0 1.0 0.00 0.00 0.00 69 1020.3
20260901091024 73 0 0.0 1.0 0.00 0.00 0.00 69 1020.4
20260901090528 73 281 0.0 1.0 0.00 0.00 0.00 69 1020.2
20260901090044 73 0 0.0 1.0 0.00 0.00 0.00 69 1020.1
20260901085525 73 0 0.0 0.0 0.00 0.00 0.00 70 1020.1
20260901085025 73 0 0.0 0.0 0.00 0.00 0.00 70 1020.2
20260901084547 73 0 0.0 0.0 0.00 0.00 0.00 71 1020.2
20260901084026 73 0 0.0 1.0 0.00 0.00 0.00 71 1020.2
20260901083526 73 0 0.0 1.0 0.00 0.00 0.00 72 1020.2
20260901083048 73 0 0.0 1.0 0.00 0.00 0.00 72 1020.2
20260901082526 73 0 0.0 1.0 0.00 0.00 0.00 73 1020.3
20260901082026 73 0 0.0 1.0 0.00 0.00 0.00 73 1020.3
20260901081546 73 0 0.0 1.0 0.00 0.00 0.00 73 1020.3
20260901081028 73 0 0.0 1.0 0.00 0.00 0.00 73 1020.4
20260901080525 73 0 0.0 0.0 0.00 0.00 0.00 73 1020.3
20260901080047 73 0 0.0 0.0 0.00 0.00 0.00 73 1020.3
20260901075525 73 0 0.0 0.0 0.00 0.00 0.00 73 1020.2
20260901075023 73 0 0.0 0.0 0.00 0.00 0.00 73 1020.1
20260901074544 73 0 0.0 0.0 0.00 0.00 0.00 73 1020.2
20260901074024 73 0 0.0 0.0 0.00 0.00 0.00 73 1020.2
20260901073524 73 0 0.0 0.0 0.00 0.00 0.00 73 1020.3
20260901073048 73 0 0.0 0.0 0.00 0.00 0.00 73 1020.3
20260901072523 73 0 0.0 0.0 0.00 0.00 0.00 73 1020.3
20260901072026 73 0 0.0 0.0 0.00 0.00 0.00 73 1020.4
20260901071546 73 0 0.0 0.0 0.00 0.00 0.00 73 1020.5
20260901071024 73 0 0.0 0.0 0.00 0.00 0.00 73 1020.5
20260901070526 73 0 0.0 0.0 0.00 0.00 0.00 73 1020.6
20260901070051 73 0 0.0 0.0 0.00 0.00 0.00 73 1020.6
20260901065525 73 0 0.0 0.0 0.00 0.00 0.00 73 1020.6
20260901065024 74 0 0.0 0.0 0.00 0.00 0.00 73 1020.7
20260901064546 74 0 0.0 0.0 0.00 0.00 0.00 73 1020.7
20260901064025 74 0 0.0 1.0 0.00 0.00 0.00 73 1020.8
20260901063524 74 0 0.0 1.0 0.00 0.00 0.00 73 1020.7
20260901063049 73 0 0.0 1.0 0.00 0.00 0.00 73 1020.7
20260901062525 73 0 0.0 0.0 0.00 0.00 0.00 72 1020.7
20260901062026 73 0 0.0 1.0 0.00 0.00 0.00 72 1020.6
20260901061547 73 0 0.0 1.0 0.00 0.00 0.00 72 1020.8
20260901061024 73 0 0.0 1.0 0.00 0.00 0.00 71 1020.8
20260901060524 73 0 0.0 1.0 0.00 0.00 0.00 71 1020.9
20260901060046 73 0 0.0 0.0 0.00 0.00 0.00 71 1020.8
20260901055525 73 0 0.0 0.0 0.00 0.00 0.00 71 1020.9
20260901055024 74 0 0.0 0.0 0.00 0.00 0.00 71 1020.8
20260901054544 73 0 0.0 0.0 0.00 0.00 0.00 71 1020.8
20260901054025 73 0 0.0 0.0 0.00 0.00 0.00 71 1020.9
20260901053526 73 0 0.0 0.0 0.00 0.00 0.00 70 1021.0
20260901053053 73 0 0.0 0.0 0.00 0.00 0.00 70 1020.9
20260901052527 73 0 0.0 0.0 0.00 0.00 0.00 69 1021.0
20260901052026 73 0 0.0 0.0 0.00 0.00 0.00 70 1021.0
20260901051546 73 0 0.0 0.0 0.00 0.00 0.00 69 1021.0
20260901051030 73 0 0.0 0.0 0.00 0.00 0.00 69 1021.0
20260901050527 73 0 0.0 0.0 0.00 0.00 0.00 69 1021.0
20260901050043 73 0 0.0 0.0 0.00 0.00 0.00 68 1021.0
20260901045527 74 0 0.0 0.0 0.00 0.00 0.00 68 1021.0
20260901045024 74 0 0.0 1.0 0.00 0.00 0.00 68 1021.0
20260901044604 74 0 0.0 1.0 0.00 0.00 0.00 67 1021.0
20260901044026 74 0 0.0 0.0 0.00 0.00 0.00 67 1020.9
20260901043526 74 0 0.0 0.0 0.00 0.00 0.00 66 1020.8
20260901043049 74 0 0.0 0.0 0.00 0.00 0.00 66 1020.9
20260901042530 75 0 0.0 0.0 0.00 0.00 0.00 66 1020.9
20260901042025 75 0 0.0 0.0 0.00 0.00 0.00 65 1020.9
20260901041547 75 0 0.0 0.0 0.00 0.00 0.00 66 1020.9
20260901041026 75 0 0.0 0.0 0.00 0.00 0.00 66 1021.0
20260901040526 75 0 0.0 0.0 0.00 0.00 0.00 65 1020.9
20260901040044 75 0 0.0 0.0 0.00 0.00 0.00 65 1020.8
20260901035524 75 0 0.0 0.0 0.00 0.00 0.00 65 1020.9
20260901035025 75 0 0.0 0.0 0.00 0.00 0.00 65 1020.8
20260901034549 75 0 0.0 0.0 0.00 0.00 0.00 65 1020.8
20260901034028 75 0 0.0 0.0 0.00 0.00 0.00 65 1020.7
20260901033526 75 0 0.0 0.0 0.00 0.00 0.00 64 1020.7
20260901033045 75 0 0.0 0.0 0.00 0.00 0.00 64 1020.7
20260901032526 76 0 0.0 0.0 0.00 0.00 0.00 64 1020.8
20260901032025 76 0 0.0 0.0 0.00 0.00 0.00 64 1020.8
20260901031549 76 0 0.0 0.0 0.00 0.00 0.00 63 1020.8
20260901031026 76 0 0.0 0.0 0.00 0.00 0.00 63 1020.8
20260901030525 76 0 0.0 0.0 0.00 0.00 0.00 62 1020.8
20260901030050 76 0 0.0 0.0 0.00 0.00 0.00 62 1020.8
20260901025525 76 0 0.0 0.0 0.00 0.00 0.00 62 1020.8
20260901025025 77 0 0.0 0.0 0.00 0.00 0.00 62 1020.8
20260901024542 77 0 0.0 1.0 0.00 0.00 0.00 62 1020.8
20260901024027 77 0 0.0 1.0 0.00 0.00 0.00 62 1020.8
20260901023525 77 0 0.0 1.0 0.00 0.00 0.00 62 1020.7
20260901023048 77 0 0.0 0.0 0.00 0.00 0.00 62 1020.5
20260901022525 77 0 0.0 0.0 0.00 0.00 0.00 61 1020.7
20260901022025 77 0 0.0 0.0 0.00 0.00 0.00 61 1020.6
20260901021545 77 0 0.0 0.0 0.00 0.00 0.00 61 1020.5
20260901021025 78 0 0.0 0.0 0.00 0.00 0.00 61 1020.5
20260901020524 78 0 0.0 0.0 0.00 0.00 0.00 60 1020.5
20260901020043 78 0 0.0 0.0 0.00 0.00 0.00 60 1020.4
20260901015523 78 0 0.0 0.0 0.00 0.00 0.00 59 1020.4
20260901015025 78 0 0.0 0.0 0.00 0.00 0.00 60 1020.5
20260901014603 78 0 0.0 0.0 0.00 0.00 0.00 60 1020.3
20260901014026 78 0 0.0 0.0 0.00 0.00 0.00 60 1020.3
20260901013528 78 0 0.0 0.0 0.00 0.00 0.00 60 1020.2
20260901013047 78 0 0.0 0.0 0.00 0.00 0.00 60 1020.2
20260901012528 78 0 0.0 0.0 0.00 0.00 0.00 60 1020.2
20260901012024 78 0 0.0 0.0 0.00 0.00 0.00 59 1020.1
20260901011546 79 0 0.0 0.0 0.00 0.00 0.00 59 1019.9
20260901011024 79 0 0.0 0.0 0.00 0.00 0.00 59 1019.8
20260901010524 79 0 0.0 0.0 0.00 0.00 0.00 59 1019.8
20260901010048 79 0 0.0 0.0 0.00 0.00 0.00 59 1019.8
20260901005524 79 0 0.0 0.0 0.00 0.00 0.00 58 1019.8